[[{"header":{"parameterUnit":"m.s-1","parameterCategory":2,"la1":30.2992,"la2":30.254,"lo1":-89.0895,"lo2":-89.0443,"dy":0.0025,"dx":0.0025,"nx":19,"ny":19,"refTime":"2026-04-22T09:00:00:Z","depth":"0","parameterNumber":2,"parameterNumberName":"U-component_of_CURRENTS"},"data":[0,0,0,0.1763,0.1767,0.1921,0.1921,0.2082,0.2083,0,0,0,0,0,0,0,0,0,0,0,0.17,0.1701,0.1763,0.1767,0.1921,0.1921,0.2082,0.2083,0,0,0,0,0,0,0,0,0,0,0,0.17,0.1701,0.1703,0.1768,0.1921,0.1921,0.2081,0.1972,0,0,0,0,0,0,0,0,0,0,0.1826,0.1763,0.1701,0.1703,0.1769,0.1921,0.1922,0.1967,0.1979,0.2004,0,0.2032,0,0.207,0.2094,0.2095,0,0,0,0.1759,0.1753,0.1812,0.1703,0.177,0.192,0.1849,0.1974,0.1987,0.202,0.2035,0.2042,0.2073,0.2095,0.2096,0.2274,0.2274,0,0,0.1751,0.1712,0.1803,0.1821,0.1816,0.1844,0.1854,0.1982,0.1987,0.2035,0.2046,0.2075,0.2096,0.2097,0.2273,0.2274,0,0,0,0.1732,0.1705,0.1762,0.1813,0.185,0.1849,0.186,0.1981,0.2005,0.2048,0.2077,0.2097,0.2099,0.2272,0.2273,0.2269,0,0,0,0.1726,0.1696,0.1758,0.1734,0.1847,0.192,0.1855,0.1996,0.2012,0.2077,0.2097,0.21,0.2271,0.2273,0.2267,0.2249,0,0,0,0.1692,0.1692,0.1715,0.1732,0.1806,0.1919,0.195,0.2,0.2031,0.2095,0.2101,0.2271,0.2272,0.2266,0.2248,0.2286,0,0,0,0.1639,0.1687,0.1714,0.1787,0.1805,0.1932,0.1949,0.2038,0.2094,0.2098,0.2271,0.2273,0.2265,0.2247,0.2284,0.2222,0.2223,0,0,0.1674,0.1689,0.174,0.1769,0.1889,0.1909,0.2016,0.2089,0.213,0.2223,0.2228,0.2268,0.2248,0.2285,0.2325,0.2323,0,0,0,0.1736,0.1768,0.1812,0.1888,0.1974,0.2031,0.2104,0.214,0.2228,0.2175,0.2306,0.2294,0.2317,0.2278,0.2277,0.1982,0.2281,0.2281,0.2281,0.1712,0.1788,0.1874,0.197,0.2035,0.2124,0.2171,0.2234,0.227,0.2312,0.2319,0.2381,0.2342,0.234,0.2037,0.2362,0.2362,0.2362,0.2362,0.1783,0.1839,0.1915,0.2019,0.2079,0.2149,0.2241,0.2266,0.2356,0.2363,0.2387,0.2311,0.2338,0.2015,0.2362,0.2362,0.2362,0.2362,0.2362,0.177,0.1806,0.1875,0.2004,0.2073,0.2151,0.2207,0.2274,0.2347,0.2375,0.2365,0.2364,0.2055,0.2405,0.2406,0.2406,0.2406,0.2406,0.2406,0.172,0.1796,0.1871,0.1989,0.2037,0.2099,0.2196,0.2243,0.2318,0.2356,0.2356,0.2038,0.2395,0.2364,0.2408,0.2407,0.2407,0.2407,0.2407,0.1732,0.1747,0.1871,0.193,0.2036,0.2032,0.2131,0.22,0.2281,0.2306,0.1968,0.2357,0.2353,0.2353,0.2322,0.2353,0.2353,0.2353,0.2353,0.1712,0.1738,0.188,0.1954,0.2004,0.2009,0.1974,0.1992,0.1914,0.178,0.1778,0.1695,0.171,0.1663,0.1679,0.1633,0.1488,0.1486,0.1485,0.1739,0.1791,0.1867,0.1946,0.1985,0.1944,0.1824,0.1651,0.1476,0.1419,0.1373,0.141,0.1259,0.1308,0.1216,0.1261,0.1182,0,0]},{"header":{"parameterUnit":"m.s-1","parameterCategory":2,"la1":30.2992,"la2":30.254,"lo1":-89.0895,"lo2":-89.0443,"dy":0.0025,"dx":0.0025,"nx":19,"ny":19,"refTime":"2026-04-22T09:00:00:Z","depth":"0","parameterNumber":3,"parameterNumberName":"V-component_of_CURRENTS"},"data":[0,0,0,0.0083,0.0083,0.0084,0.0084,0.0088,0.0088,0,0,0,0,0,0,0,0,0,0,0,0.0085,0.0085,0.0083,0.0083,0.0084,0.0084,0.0088,0.0088,0,0,0,0,0,0,0,0,0,0,0,0.0085,0.0085,0.0085,0.0083,0.0084,0.0084,0.0088,0.0086,0,0,0,0,0,0,0,0,0,0,0.0085,0.0083,0.0085,0.0085,0.0083,0.0084,0.0084,0.0086,0.0086,0.009,0,0.0094,0,0.0092,0.0089,0.0089,0,0,0,0.008,0.0082,0.0087,0.0085,0.0084,0.0084,0.0083,0.0086,0.0086,0.009,0.0094,0.0094,0.0092,0.0089,0.0089,0.0148,0.0148,0,0,0.008,0.0079,0.0087,0.0088,0.0089,0.0083,0.0083,0.0086,0.0086,0.0094,0.0094,0.0093,0.0089,0.0089,0.0147,0.0148,0,0,0,0.0082,0.0079,0.0084,0.0088,0.0088,0.0083,0.0083,0.0086,0.0089,0.0094,0.0093,0.0089,0.0089,0.0147,0.0148,0.02,0,0,0,0.0082,0.0081,0.0084,0.0083,0.0088,0.0085,0.0083,0.0089,0.0089,0.0093,0.0089,0.0089,0.0146,0.0147,0.0197,0.0236,0,0,0,0.0084,0.0081,0.0084,0.0083,0.0085,0.0085,0.0088,0.0089,0.0088,0.0089,0.0089,0.0146,0.0147,0.0194,0.0232,0.0346,0,0,0,0.0079,0.0096,0.0084,0.01,0.0085,0.0095,0.0088,0.0089,0.009,0.0089,0.0146,0.0148,0.0194,0.0229,0.0341,0.0445,0.0473,0,0,0.0101,0.0098,0.0108,0.0098,0.0112,0.0095,0.0124,0.0119,0.0116,0.0143,0.0144,0.0198,0.0231,0.0345,0.0523,0.0549,0,0,0,0.0115,0.0124,0.0124,0.0129,0.0127,0.0147,0.0133,0.0154,0.019,0.0125,0.0211,0.0231,0.0301,0.0355,0.0375,0.0376,0.0154,0.0154,0.0154,0.0141,0.0142,0.0158,0.0162,0.0169,0.0182,0.022,0.0251,0.0218,0.0257,0.0282,0.0416,0.0472,0.0489,0.0487,0.0283,0.0284,0.0284,0.0284,0.0177,0.0192,0.019,0.0208,0.0222,0.0247,0.0308,0.0319,0.0425,0.0357,0.0423,0.0417,0.0516,0.0505,0.0288,0.0287,0.0286,0.0286,0.0286,0.02,0.021,0.0215,0.0242,0.0279,0.0299,0.0416,0.0444,0.0489,0.0551,0.0645,0.0644,0.0633,0.0591,0.0591,0.0592,0.0593,0.0593,0.0593,0.0225,0.0233,0.0257,0.0282,0.0311,0.038,0.0488,0.0587,0.0711,0.0737,0.0739,0.0692,0.0511,0.0496,0.0604,0.0602,0.0601,0.06,0.0599,0.0264,0.0265,0.0306,0.0333,0.0417,0.0551,0.0631,0.0854,0.0949,0.1041,0.0977,0.0858,0.0869,0.0852,0.0846,0.1038,0.1038,0.1038,0.1038,0.0289,0.0292,0.0354,0.0416,0.0523,0.0634,0.0905,0.1073,0.1176,0.1216,0.1156,0.1081,0.1063,0.1078,0.1056,0.1051,0.1291,0.1292,0.1292,0.0312,0.0328,0.0381,0.0443,0.0567,0.0762,0.103,0.1229,0.1329,0.1295,0.114,0.113,0.1004,0.0976,0.0977,0.0947,0.093,0,0]}],[{"header":{"parameterUnit":"m.s-1","parameterCategory":2,"la1":30.2992,"la2":30.254,"lo1":-89.0895,"lo2":-89.0443,"dy":0.0025,"dx":0.0025,"nx":19,"ny":19,"refTime":"2026-04-22T09:00:00:Z","depth":"2","parameterNumber":2,"parameterNumberName":"U-component_of_CURRENTS"},"data":[0,0,0,0.1654,0.1658,0.181,0.181,0.1974,0.1976,0,0,0,0,0,0,0,0,0,0,0,0.1616,0.1618,0.1654,0.1659,0.181,0.181,0.1974,0.1976,0,0,0,0,0,0,0,0,0,0,0,0.1615,0.1617,0.162,0.1659,0.1809,0.181,0.1974,0.186,0,0,0,0,0,0,0,0,0,0,0.1713,0.1681,0.1617,0.162,0.166,0.1809,0.181,0.1854,0.1867,0.1907,0,0.1971,0,0.1987,0.1989,0.199,0,0,0,0.1629,0.167,0.1729,0.1621,0.1662,0.1809,0.1733,0.1861,0.1875,0.1924,0.1974,0.198,0.199,0.199,0.1991,0.2233,0.2234,0,0,0.162,0.1616,0.172,0.174,0.1756,0.1728,0.1738,0.187,0.1897,0.1974,0.1984,0.1993,0.1992,0.1993,0.2232,0.2233,0,0,0,0.1617,0.1611,0.1666,0.1733,0.1769,0.1734,0.1745,0.189,0.1916,0.1985,0.1995,0.1993,0.1995,0.223,0.2232,0.2244,0,0,0,0.161,0.1611,0.1663,0.1657,0.1768,0.1833,0.1762,0.1907,0.1922,0.1994,0.1993,0.1997,0.2229,0.2231,0.2241,0.2214,0,0,0,0.1599,0.1608,0.1646,0.1658,0.1737,0.1831,0.1862,0.191,0.1929,0.199,0.1998,0.2228,0.2231,0.2238,0.2211,0.2253,0,0,0,0.1557,0.1599,0.1648,0.1713,0.1737,0.1841,0.1861,0.1956,0.2016,0.1994,0.2229,0.2232,0.2237,0.221,0.2251,0.2112,0.2111,0,0,0.1564,0.16,0.1637,0.1683,0.179,0.1815,0.1922,0.2021,0.2069,0.2176,0.2182,0.2242,0.2211,0.2253,0.2274,0.2267,0,0,0,0.1608,0.1664,0.1702,0.1792,0.1861,0.1941,0.2029,0.2083,0.2205,0.2125,0.2296,0.2277,0.2302,0.2216,0.2213,0.2245,0.2245,0.2245,0.2244,0.1636,0.1687,0.1768,0.1862,0.1934,0.2052,0.2117,0.2217,0.2259,0.2334,0.2328,0.2419,0.2331,0.2326,0.2393,0.2393,0.2393,0.2393,0.2393,0.1699,0.1742,0.1837,0.1929,0.2016,0.2115,0.2231,0.2282,0.2393,0.2401,0.2426,0.2284,0.2322,0.2395,0.2395,0.2395,0.2395,0.2394,0.2394,0.1722,0.1733,0.1817,0.1942,0.2052,0.2151,0.2236,0.2317,0.2398,0.2431,0.2365,0.2362,0.2387,0.2465,0.2465,0.2465,0.2465,0.2465,0.2465,0.1673,0.1747,0.1829,0.1952,0.2026,0.2117,0.224,0.2297,0.2344,0.2358,0.2358,0.2443,0.2441,0.2394,0.2467,0.2467,0.2466,0.2466,0.2466,0.1685,0.1696,0.1816,0.1894,0.2041,0.2052,0.2173,0.2222,0.2294,0.2293,0.2326,0.2329,0.2306,0.2308,0.2259,0.2293,0.2294,0.2293,0.2293,0.1658,0.1679,0.1822,0.1921,0.2001,0.2027,0.1972,0.1868,0.1938,0.185,0.1868,0.1794,0.1813,0.1758,0.1773,0.1711,0.1603,0.1601,0.16,0.1675,0.1711,0.1805,0.1901,0.1984,0.1961,0.1785,0.1409,0.1267,0.1565,0.1669,0.2262,0.2204,0.2213,0.2171,0.2178,0.2096,0,0]},{"header":{"parameterUnit":"m.s-1","parameterCategory":2,"la1":30.2992,"la2":30.254,"lo1":-89.0895,"lo2":-89.0443,"dy":0.0025,"dx":0.0025,"nx":19,"ny":19,"refTime":"2026-04-22T09:00:00:Z","depth":"2","parameterNumber":3,"parameterNumberName":"V-component_of_CURRENTS"},"data":[0,0,0,-0.0066,-0.0067,-0.0139,-0.014,-0.0221,-0.0222,0,0,0,0,0,0,0,0,0,0,0,-0.0031,-0.0031,-0.0066,-0.0067,-0.0139,-0.014,-0.0221,-0.0222,0,0,0,0,0,0,0,0,0,0,0,-0.0031,-0.0031,-0.0031,-0.0068,-0.0139,-0.014,-0.0221,-0.0171,0,0,0,0,0,0,0,0,0,0,-0.0103,-0.0074,-0.0031,-0.0031,-0.0068,-0.0139,-0.014,-0.0169,-0.0174,-0.0183,0,-0.0182,0,-0.0204,-0.0226,-0.0226,0,0,0,-0.0075,-0.0069,-0.0085,-0.0031,-0.0068,-0.0139,-0.0109,-0.0172,-0.0178,-0.019,-0.0184,-0.0187,-0.0206,-0.0227,-0.0227,-0.0185,-0.0184,0,0,-0.0071,-0.0052,-0.0081,-0.0088,-0.0072,-0.0107,-0.0111,-0.0176,-0.0177,-0.0184,-0.0189,-0.0207,-0.0227,-0.0228,-0.0186,-0.0185,0,0,0,-0.0055,-0.0049,-0.0064,-0.0084,-0.0099,-0.0109,-0.0114,-0.0175,-0.0178,-0.019,-0.0208,-0.0227,-0.0228,-0.0187,-0.0186,-0.0079,0,0,0,-0.0053,-0.0039,-0.0062,-0.0053,-0.0097,-0.014,-0.0111,-0.0173,-0.0182,-0.0208,-0.0227,-0.0229,-0.0188,-0.0186,-0.0084,-0.0042,0,0,0,-0.0031,-0.0038,-0.004,-0.0051,-0.008,-0.014,-0.0148,-0.0176,-0.0192,-0.0226,-0.0229,-0.0189,-0.0187,-0.0088,-0.0049,0.0076,0,0,0,-0.0018,-0.0018,-0.0039,-0.0061,-0.0079,-0.0127,-0.0148,-0.0185,-0.0212,-0.0228,-0.0188,-0.0186,-0.009,-0.0054,0.007,0.0149,0.0183,0,0,-0.0013,-0.0017,-0.0036,-0.0056,-0.0101,-0.0118,-0.0137,-0.0175,-0.0173,-0.0171,-0.017,-0.0082,-0.005,0.0075,0.0281,0.0311,0,0,0,-0.0032,-0.004,-0.006,-0.0093,-0.0129,-0.012,-0.0167,-0.0134,-0.0076,-0.0176,-0.0066,-0.0049,0.0027,0.0063,0.0087,-0.0175,-0.0175,-0.0175,-0.0176,-0.0004,-0.0041,-0.0069,-0.0106,-0.0122,-0.0127,-0.0081,-0.0031,-0.0062,0.0022,0.0051,0.0233,0.0272,0.0291,0.0067,0.0068,0.0068,0.0068,0.0069,-0.0007,-0.0022,-0.0059,-0.0083,-0.0075,-0.0067,0.0019,0.0064,0.0224,0.0169,0.0238,0.0188,0.0325,0.0077,0.0076,0.0074,0.0074,0.0073,0.0072,0.0019,0.0013,-0.0003,-0.0035,-0.0001,0.0015,0.0169,0.0247,0.0333,0.0421,0.0494,0.0493,0.0309,0.0483,0.0483,0.0484,0.0485,0.0485,0.0486,0.0069,0.0046,0.0036,0.002,0.0039,0.0138,0.0298,0.0431,0.0592,0.0627,0.0628,0.0374,0.036,0.0334,0.0498,0.0496,0.0494,0.0493,0.0492,0.0096,0.0088,0.0071,0.0078,0.0146,0.0317,0.0447,0.073,0.0847,0.0942,0.0756,0.0746,0.0727,0.0706,0.0689,0.0935,0.0935,0.0935,0.0935,0.0119,0.0105,0.0111,0.014,0.025,0.0404,0.0746,0.094,0.1019,0.0993,0.099,0.0891,0.0873,0.0853,0.0829,0.081,0.1088,0.1088,0.1088,0.0115,0.0109,0.014,0.0167,0.0296,0.0549,0.0898,0.1044,0.1003,0.1086,0.0933,0.0962,0.0802,0.078,0.073,0.0699,0.0659,0,0]}],[{"header":{"parameterUnit":"m.s-1","parameterCategory":2,"la1":30.2992,"la2":30.254,"lo1":-89.0895,"lo2":-89.0443,"dy":0.0025,"dx":0.0025,"nx":19,"ny":19,"refTime":"2026-04-22T09:00:00:Z","depth":"4","parameterNumber":2,"parameterNumberName":"U-component_of_CURRENTS"},"data":[0,0,0,0.0606,0.0604,0.0552,0.0551,0.0516,0.0515,0,0,0,0,0,0,0,0,0,0,0,0.0625,0.0625,0.0606,0.0604,0.0552,0.0551,0.0516,0.0515,0,0,0,0,0,0,0,0,0,0,0,0.0626,0.0625,0.0625,0.0604,0.0552,0.0551,0.0516,0.0548,0,0,0,0,0,0,0,0,0,0,0.0596,0.0628,0.0625,0.0625,0.0604,0.0552,0.0551,0.055,0.0546,0.0548,0,0.0536,0,0.0523,0.0513,0.0513,0,0,0,0.0607,0.0631,0.0596,0.0625,0.0603,0.0552,0.0576,0.0548,0.0544,0.0543,0.0535,0.0534,0.0523,0.0513,0.0513,0.0537,0.0538,0,0,0.061,0.0637,0.0598,0.0594,0.0585,0.0578,0.0575,0.0545,0.0553,0.0535,0.0533,0.0522,0.0513,0.0513,0.0537,0.0537,0,0,0,0.0617,0.0639,0.0605,0.0595,0.0582,0.0576,0.0572,0.0554,0.0537,0.0532,0.0522,0.0513,0.0513,0.0536,0.0537,0.0561,0,0,0,0.0618,0.0642,0.0606,0.0625,0.0582,0.0568,0.0583,0.0539,0.0535,0.0522,0.0513,0.0512,0.0536,0.0537,0.0559,0.0546,0,0,0,0.0629,0.0644,0.0631,0.0626,0.0598,0.0568,0.055,0.0538,0.0528,0.0513,0.0512,0.0535,0.0536,0.0558,0.0544,0.0615,0,0,0,0.0666,0.0624,0.0632,0.0577,0.0599,0.0532,0.055,0.0532,0.052,0.0513,0.0536,0.0537,0.0557,0.0543,0.0613,0.046,0,0,0,0.0623,0.0621,0.058,0.0584,0.0495,0.054,0.0509,0.0521,0.0543,0.0547,0.0547,0.056,0.0544,0.0615,0.0529,0,0,0,0,0.057,0.0538,0.0515,0.0468,0.0439,0.0463,0.0477,0.0511,0.0563,0.054,0.0577,0.0566,0.061,0.0515,0.0543,0.0542,0.0542,0.0542,0.0542,0.0572,0.0511,0.0436,0.0379,0.037,0.0416,0.0455,0.0515,0.0539,0.0595,0.0599,0.0682,0.0583,0.0627,0.0627,0.0627,0.0627,0.0627,0.0628,0.0473,0.0407,0.0378,0.0288,0.0325,0.0334,0.0439,0.0509,0.0621,0.0624,0.0668,0.0562,0.063,0.063,0.0629,0.0629,0.0629,0.0629,0.0629,0.0454,0.0406,0.0358,0.025,0.027,0.0331,0.0414,0.0543,0.0631,0.0687,0.0653,0.0712,0.0697,0.0758,0.0758,0.0758,0.0759,0.0759,0.0759,0.0447,0.0383,0.029,0.0221,0.0208,0.0274,0.0436,0.0505,0.0645,0.0655,0.073,0.0726,0.0722,0.0706,0.0763,0.0762,0.0762,0.0761,0.0761,0.0358,0.0348,0.0196,0.0151,0.0114,0.0182,0.0348,0.0486,0.0572,0.0611,0.0646,0.065,0.0633,0.0631,0.061,0.0642,0.064,0.0638,0,0.0318,0.0292,0.0097,0.0016,0.0003,0.0121,0.0204,0.0318,0.0469,0.0457,0.0561,0.0594,0.0598,0.057,0.0566,0.0536,0,0,0,0.0238,0.0181,0.0047,-0.0053,-0.0057,0.0083,0.0226,0.0258,0.0453,0.0473,0.0595,0.0606,0.0616,0.0775,0.076,0.0755,0.0728,0,0]},{"header":{"parameterUnit":"m.s-1","parameterCategory":2,"la1":30.2992,"la2":30.254,"lo1":-89.0895,"lo2":-89.0443,"dy":0.0025,"dx":0.0025,"nx":19,"ny":19,"refTime":"2026-04-22T09:00:00:Z","depth":"4","parameterNumber":3,"parameterNumberName":"V-component_of_CURRENTS"},"data":[0,0,0,0.0157,0.0159,0.0251,0.0252,0.0413,0.0414,0,0,0,0,0,0,0,0,0,0,0,0.0133,0.0133,0.0157,0.0159,0.0251,0.0252,0.0412,0.0414,0,0,0,0,0,0,0,0,0,0,0,0.0132,0.0133,0.0134,0.016,0.0251,0.0252,0.0412,0.0333,0,0,0,0,0,0,0,0,0,0,0.0239,0.0195,0.0133,0.0134,0.016,0.0251,0.0252,0.0329,0.0338,0.0381,0,0.0398,0,0.0406,0.0425,0.0426,0,0,0,0.0166,0.0187,0.0223,0.0134,0.0161,0.0251,0.0212,0.0334,0.0344,0.0393,0.0401,0.0406,0.0409,0.0426,0.0427,0.0599,0.06,0,0,0.0161,0.0141,0.0216,0.023,0.0191,0.0209,0.0214,0.034,0.0347,0.0401,0.041,0.0412,0.0427,0.0429,0.0599,0.06,0,0,0,0.0142,0.0137,0.0169,0.0224,0.0235,0.0211,0.0218,0.0342,0.0356,0.0411,0.0413,0.0428,0.043,0.0598,0.0599,0.0619,0,0,0,0.0139,0.0126,0.0167,0.0154,0.0232,0.028,0.0217,0.0347,0.0361,0.0413,0.0428,0.0432,0.0597,0.0599,0.0617,0.0639,0,0,0,0.0127,0.0124,0.0139,0.0153,0.0191,0.0278,0.0299,0.035,0.0363,0.0426,0.0432,0.0597,0.0598,0.0615,0.0636,0.0646,0,0,0,0.0098,0.0132,0.0138,0.0194,0.019,0.0292,0.0298,0.0373,0.0429,0.0429,0.0598,0.0599,0.0615,0.0634,0.0644,0.0565,0,0,0,0.0126,0.0134,0.0174,0.0183,0.0286,0.0279,0.0385,0.045,0.0466,0.0559,0.0563,0.0618,0.0636,0.0646,0.0656,0,0,0,0,0.0176,0.0206,0.0241,0.0302,0.0364,0.0422,0.0474,0.0492,0.0561,0.0505,0.0643,0.0655,0.066,0.061,0.0607,0.0606,0.0606,0.0606,0.0606,0.0177,0.0238,0.0321,0.0404,0.0463,0.0533,0.0571,0.0607,0.0624,0.0647,0.0689,0.0739,0.069,0.0703,0.0704,0.0704,0.0704,0.0704,0.0704,0.0245,0.0302,0.0383,0.0484,0.0552,0.0637,0.069,0.069,0.0743,0.0735,0.0737,0.0658,0.0707,0.0706,0.0706,0.0705,0.0705,0.0705,0.0705,0.0245,0.0284,0.0358,0.0504,0.0624,0.0708,0.0769,0.0799,0.0777,0.0789,0.0737,0.076,0.0736,0.0794,0.0795,0.0795,0.0795,0.0795,0.0795,0.021,0.029,0.0389,0.0539,0.0644,0.0753,0.0832,0.0828,0.0826,0.0772,0.0809,0.077,0.0767,0.0743,0.0797,0.0797,0.0797,0.0797,0.0796,0.023,0.0254,0.0398,0.0505,0.0723,0.0786,0.0865,0.0821,0.0808,0.0764,0.0747,0.0749,0.0734,0.0732,0.0705,0.0752,0.0751,0.075,0,0.0221,0.0249,0.0437,0.0592,0.0716,0.0811,0.0769,0.0763,0.0736,0.0718,0.0793,0.0775,0.0775,0.0759,0.0756,0.0726,0,0,0,0.0251,0.0301,0.043,0.0582,0.0728,0.073,0.0751,0.0711,0.0764,0.071,0.0729,0.0735,0.0777,0.0805,0.0786,0.0782,0.0743,0,0]}]]